NETSAT-2

Last updated on Wed Sep 17 2025 00:03:49 GMT+0000 (Coordinated Universal Time)

1 46507U 20068X 25259.40693110 .00017673 00000+0 56119-3 0 9993 2 46507 97.8548 242.4723 0003201 217.1601 142.9419 15.32722330273610
UTC large
Height (km)
Speed (km/s)
/
Latitude / Longitude
Inclination (degrees)
Orbital Period (minutes)
Azimuth
Elevation
Range (km)
Doppler Factor

Next 0 passes for location: London (51.5072 / 0.1276)

Sorry there are no passes over London.